TimeEDT,TemperatureF,Dew PointF,Humidity,Sea Level PressureIn,VisibilityMPH,Wind Direction,Wind SpeedMPH,Gust SpeedMPH,PrecipitationIn,Events,Conditions,WindDirDegrees,DateUTC
12:54 AM,37.9,28.9,70,29.96,10.0,West,3.5,-,N/A,,Scattered Clouds,270,2013-03-27 04:54:00
1:54 AM,39.0,28.9,67,29.97,10.0,West,4.6,-,N/A,,Clear,280,2013-03-27 05:54:00
2:54 AM,39.9,28.9,65,29.96,10.0,West,5.8,-,N/A,,Partly Cloudy,270,2013-03-27 06:54:00
3:54 AM,37.9,28.9,70,29.96,10.0,West,4.6,-,N/A,,Clear,270,2013-03-27 07:54:00
4:54 AM,39.9,28.9,65,29.97,10.0,West,5.8,-,N/A,,Overcast,270,2013-03-27 08:54:00
5:54 AM,39.0,30.0,70,29.98,10.0,West,5.8,-,N/A,,Overcast,260,2013-03-27 09:54:00
6:54 AM,39.0,30.0,70,30.00,10.0,West,6.9,-,N/A,,Overcast,270,2013-03-27 10:54:00
7:54 AM,41.0,30.0,65,30.03,10.0,West,5.8,-,N/A,,Overcast,280,2013-03-27 11:54:00
8:54 AM,44.1,30.9,60,30.04,10.0,West,6.9,-,N/A,,Overcast,270,2013-03-27 12:54:00
9:54 AM,45.0,30.0,56,30.05,10.0,WNW,12.7,-,N/A,,Mostly Cloudy,300,2013-03-27 13:54:00
10:54 AM,48.9,28.9,46,30.04,10.0,NW,15.0,-,N/A,,Clear,310,2013-03-27 14:54:00
11:54 AM,50.0,28.0,43,30.04,10.0,WNW,12.7,-,N/A,,Partly Cloudy,300,2013-03-27 15:54:00
12:54 PM,51.1,27.0,39,30.02,10.0,West,13.8,20.7,N/A,,Partly Cloudy,280,2013-03-27 16:54:00
1:54 PM,51.1,26.1,38,30.01,10.0,WNW,16.1,23.0,N/A,,Scattered Clouds,290,2013-03-27 17:54:00
2:54 PM,52.0,26.1,37,30.00,10.0,West,17.3,25.3,N/A,,Mostly Cloudy,280,2013-03-27 18:54:00
3:54 PM,53.1,25.0,34,30.00,10.0,WNW,13.8,23.0,N/A,,Mostly Cloudy,300,2013-03-27 19:54:00
4:54 PM,48.9,28.0,44,30.01,10.0,WNW,10.4,-,0.00,,Overcast,300,2013-03-27 20:54:00
5:54 PM,50.0,26.1,39,30.02,10.0,WNW,12.7,28.8,N/A,,Mostly Cloudy,300,2013-03-27 21:54:00
6:54 PM,48.0,24.1,39,30.04,10.0,WNW,13.8,24.2,N/A,,Clear,300,2013-03-27 22:54:00
7:54 PM,46.9,25.0,42,30.06,10.0,WNW,9.2,19.6,N/A,,Clear,290,2013-03-27 23:54:00
8:54 PM,45.0,26.1,48,30.07,10.0,WNW,8.1,-,N/A,,Clear,290,2013-03-28 00:54:00
9:54 PM,42.1,27.0,55,30.09,10.0,West,4.6,-,N/A,,Clear,270,2013-03-28 01:54:00
10:54 PM,37.9,28.0,68,30.09,10.0,WSW,5.8,-,N/A,,Clear,240,2013-03-28 02:54:00
11:54 PM,37.9,28.0,68,30.09,10.0,West,4.6,-,N/A,,Clear,260,2013-03-28 03:54:00